* Astronomy

Members Login
Username 
 
Password 
    Remember Me  
Post Info TOPIC: Asteroid 2015 BW310


L

Posts: 131433
Date:
Asteroid 2015 BW310
Permalink  
 


Orbital elements:
2015 BW310                                          PHA, Earth MOID = 0.0308 AU
Epoch 2014 Dec. 9.0 TT = JDT 2457000.5                  MPC
M   1.61282              (2000.0)            P               Q
n   0.22552357     Peri.  322.46463     +0.52611688     -0.83233630
a   2.6730562      Node    95.15802     +0.81651192     +0.43707966
e   0.6438640      Incl.   10.08533     +0.23771687     +0.34084843
P   4.37           H   22.0           G   0.15           U   8

MPEC 2015 - B104



__________________
Page 1 of 1  sorted by
 
Quick Reply

Please log in to post quick replies.



Create your own FREE Forum
Report Abuse
Powered by ActiveBoard